Simultaneous Nadir Overpasses (SNOs) Predictions

Prediction of SNOs between GOES-17 and TERRA Satellite Orbit:

Table of predicted SNOs for the next 14.0 days since TLE Epoch: 10/7/2022
Index Date Time (GOES-17) GOES-17 Lat,Lon TERRA Lat,Lon Distance(km) Time Diff (sec)
1 10/08/2022 19:12:27 -0.06,-137.32 -0.74,-134.22 352.73 80
2 10/09/2022 07:33:49 0.06,-137.32 -0.38,-139.41 237.94 80
3 10/11/2022 07:18:51 0.06,-137.30 0.27,-136.45 98.34 80
4 10/11/2022 19:40:03 -0.06,-137.30 0.87,-141.59 488.21 80
5 10/13/2022 07:06:32 0.06,-137.29 0.89,-133.47 434.00 80
6 10/13/2022 19:27:45 -0.06,-137.28 0.24,-138.62 152.65 80
7 10/15/2022 19:18:06 -0.05,-137.26 -0.40,-135.65 182.40 80
8 10/16/2022 07:39:27 0.05,-137.25 -0.71,-140.84 408.57 80
9 10/18/2022 07:27:07 0.04,-137.22 -0.11,-137.86 74.11 80
10 10/20/2022 07:12:07 0.04,-137.18 0.52,-134.89 260.08 80
11 10/20/2022 19:33:21 -0.04,-137.17 0.55,-140.05 327.06 80
